Location: Pulvis Stellarum Observatory
(41.6962°N, 71.4263°W)
Time: 01:44:45
(UTC-04:00)

Daily predictions for brighter satellites

Satellite Brightness Start Highest point End
(mag) Time Altitude Azimuth Time Altitude Azimuth Time Altitude Azimuth
Mayak 1.5 00:05:38 10° NNE 00:06:25 15° NNE 00:06:25 15° NNE
USA 267 4.3 00:05:41 10° NE 00:11:43 41° NNW 00:17:45 10° W
CZ-4C R/B 4.4 00:15:43 15° WNW 00:18:46 22° NNW 00:23:30 10° NNE
Cosmos 1943 Rocket 4.0 00:14:57 10° NW 00:17:25 23° WNW 00:17:25 23° WNW
ADEOS Rocket 3.8 00:27:17 10° NNE 00:32:24 51° NE 00:32:24 51° NE
USA 234 4.3 00:48:09 34° WNW 00:48:09 34° WNW 00:51:46 10° NW
Cosmos 2082 Rocket 4.3 01:10:36 17° ENE 01:10:36 17° ENE 01:12:35 10° NE
Cosmos 1464 Rocket 4.5 01:34:36 56° NNE 01:34:36 56° NNE 01:39:32 10° N
SL-16 R/B 4.1 01:37:51 23° E 01:39:56 28° ENE 01:45:07 10° N
Cosmos 1833 Rocket 4.0 01:43:32 34° ENE 01:43:32 34° ENE 01:47:08 10° NE
Nadezhda 4 Rocket 4.4 01:47:45 10° N 01:53:13 57° NE 01:53:13 57° NE
Lacrosse 4 Rocket 3.7 02:07:36 10° NNW 02:09:17 22° NNW 02:09:17 22° NNW
CZ-2D R/B 2.9 02:21:10 10° NNE 02:25:58 43° E 02:25:58 43° E
Lacrosse 5 rocket 3.2 02:30:37 30° NNE 02:30:37 30° NNE 02:32:50 10° NE
Meteor 1-23 Rocket 4.5 02:30:15 66° N 02:30:15 66° N 02:35:10 10° N
Exosat Rocket 4.2 02:24:14 10° NNW 02:30:20 87° WSW 02:31:09 73° S
Cosmos 1932 4.4 02:30:37 82° E 02:30:37 82° E 02:36:50 10° NE
ATLAS 3B R/B 4.2 02:30:43 22° SE 02:32:25 24° ESE 02:37:49 10° ENE
Cosmos 1607 4.2 02:38:06 59° WNW 02:38:16 59° NW 02:44:42 10° NNE
Cosmos 1980 Rocket 2.5 02:35:16 10° NNW 02:40:51 62° ENE 02:41:38 56° ESE
IRS-1C 4.4 02:36:40 10° NNE 02:41:47 61° E 02:41:47 61° E
SL-08 R/B 3.9 02:43:26 55° N 02:43:26 55° N 02:47:17 10° N
Cosmos 1697 Rocket 3.2 02:37:09 10° NNW 02:41:19 50° NW 02:41:19 50° NW
Cosmos 2195 Rocket 4.4 02:42:03 10° N 02:48:15 79° E 02:48:55 70° SE
Cosmos 2082 Rocket 2.5 02:52:26 55° NW 02:52:26 55° NW 02:57:41 10° NNE
SL-16 R/B 4.0 02:50:01 10° N 02:54:57 29° NE 02:59:50 10° ESE
Helios 1A Rocket 4.5 02:51:46 10° NE 02:55:20 30° E 02:55:20 30° E
Resurs 1-4 Rocket 2.0 02:53:33 10° NNE 02:58:45 86° NE 02:58:45 86° NE
Cosmos 1092 Rocket 4.1 02:56:18 10° NNW 03:02:18 59° W 03:02:18 59° W
AQUA 4.1 02:58:25 10° N 03:02:28 59° NNW 03:02:28 59° NNW
Cosmos 2142 Rocket 4.3 03:04:14 70° SSW 03:05:00 85° W 03:11:11 10° N
CBERS-1 4.2 03:01:13 10° N 03:05:50 57° NW 03:05:50 57° NW
Cosmos 1655 Rocket 4.3 03:01:54 10° N 03:08:15 66° E 03:11:31 30° SSE
COSMOS 2487 4.3 03:11:27 27° N 03:11:27 27° N 03:13:16 10° NNE
Cosmos 2322 Rocket 3.7 03:04:43 10° N 03:09:53 35° ENE 03:15:00 10° ESE
UNKNOWN OBJECT B 4.3 03:06:41 10° NNE 03:10:07 30° E 03:10:07 30° E
IRS-P3 4.4 03:06:38 10° N 03:11:46 53° WNW 03:11:46 53° WNW
Cosmos 2208 Rocket 3.9 03:13:47 72° W 03:13:53 73° WNW 03:19:09 10° NNE
Cosmos 1898 Rocket 3.4 03:08:53 10° NNW 03:14:07 83° ENE 03:15:09 58° SSE
Cosmos 1726 Rocket 3.8 03:10:03 10° N 03:14:20 61° E 03:14:27 61° E
NPP 4.1 03:10:31 10° N 03:15:38 46° WNW 03:15:38 46° WNW
Iridium 4 Rocket 4.1 03:17:46 36° NW 03:17:46 36° NW 03:20:53 10° N
Cosmos 1428 Rocket 4.3 03:13:18 10° N 03:19:31 90° W 03:21:37 44° S
H-2A R/B 3.7 03:16:56 10° N 03:19:59 33° NW 03:19:59 33° NW
Cosmos 1937 Rocket 3.6 03:17:40 10° NNW 03:22:52 71° ENE 03:25:48 26° SSE
SL-16 R/B 2.7 03:22:56 50° WSW 03:23:12 50° W 03:29:19 10° NNW
Cosmos 1833 Rocket 3.8 03:25:13 28° WNW 03:25:53 29° NW 03:30:44 10° N
Cosmos 1570 Rocket 4.3 03:26:08 49° WNW 03:26:25 50° WNW 03:31:35 10° N
Cosmos 858 Rocket 4.4 03:22:50 10° NNW 03:28:04 89° ENE 03:30:00 40° SSE
Okean 1-7 Rocket 3.9 03:30:46 53° WNW 03:30:46 53° WNW 03:34:51 10° N
Cosmos 1842 3.7 03:31:32 53° ESE 03:31:54 56° E 03:35:48 10° NNE
Cosmos 1375 Rocket 4.5 03:30:18 46° SSW 03:32:23 82° ESE 03:38:58 10° NNE
Cosmos 468 Rocket 4.0 03:34:12 56° WSW 03:34:58 62° WNW 03:40:15 10° NNE
Cosmos 2228 2.9 03:31:48 10° N 03:36:06 81° E 03:36:46 62° SSE
Cosmos 990 Rocket 3.8 03:31:16 10° NNW 03:36:27 88° WSW 03:39:14 28° SSE
USA 238 DEB 3.8 03:34:29 39° SSW 03:37:13 73° ESE 03:44:10 10° NE
USA 238 3.8 03:34:35 39° SSW 03:37:20 72° ESE 03:44:16 10° NE
ARIANE 5 R/B 2.5 03:32:21 10° N 03:37:34 66° WNW 03:38:33 54° SW
Cosmos 2058 Rocket 3.1 03:33:46 10° N 03:38:13 80° E 03:39:30 46° SSE
Spot 4 Rocket 4.1 03:35:27 10° N 03:40:32 60° WNW 03:41:28 51° WSW
Cosmos 1606 Rocket 3.9 03:38:42 10° NNW 03:42:19 46° WNW 03:42:19 46° WNW
Cosmos 1814 Rocket 3.8 03:44:07 50° SSW 03:45:30 84° WNW 03:50:43 10° NNE
Cosmos 1805 3.1 03:43:25 10° N 03:47:20 85° E 03:48:03 58° SSE
ATLAS CENTAUR R/B 4.2 03:43:59 10° N 03:47:23 21° NE 03:50:55 10° E
Cosmos 1626 Rocket 4.5 03:46:29 22° SSE 03:48:54 45° E 03:53:02 10° NNE
SJ 16-02 3.1 03:49:03 10° N 03:53:05 33° ENE 03:57:05 10° SE
Cosmos 1953 3.7 03:50:14 10° N 03:54:04 39° ENE 03:57:52 10° SSE
Cosmos 1766 3.7 03:52:14 10° NNW 03:55:31 44° WNW 03:55:31 44° WNW
Cosmos 2150 Rocket 4.0 03:50:37 10° NNW 03:56:06 82° WSW 04:01:33 10° SSE
Cosmos 1892 Rocket 3.8 03:56:01 46° W 03:56:27 48° W 04:00:44 10° N
Cosmos 2279 Rocket 4.5 04:01:16 32° WSW 04:03:23 43° WNW 04:09:20 10° N
Cosmos 2298 Rocket 4.0 03:58:25 10° NNW 04:03:40 62° WSW 04:08:33 12° S
CZ-2D R/B 3.3 04:01:46 10° N 04:06:05 25° WNW 04:07:18 23° W
Lacrosse 5 rocket 3.7 04:06:16 11° WNW 04:08:36 15° NNW 04:11:03 10° NNE
Cosmos 841 Rocket 3.5 04:09:51 32° SW 04:12:12 66° WNW 04:17:24 10° NNE
NOSS 3-2 (C) 3.9 04:10:12 18° S 04:14:28 55° ESE 04:20:44 10° NE
Cosmos 292 Rocket 3.7 04:13:02 30° SSW 04:15:26 77° WNW 04:20:16 10° NNE
Cosmos 1733 3.1 04:15:43 10° N 04:19:37 88° E 04:23:29 10° S
Cosmos 1758 3.2 04:17:08 10° NNW 04:21:06 71° W 04:24:24 14° S
ADEOS II 2.0 04:16:32 10° N 04:21:48 75° WNW 04:25:40 19° SSW
ADEOS 4.0 04:16:57 10° N 04:21:55 45° WNW 04:24:33 25° SW
Cosmos 2360 Rocket 2.9 04:16:47 10° NNW 04:22:20 57° ENE 04:27:51 10° SE
ATLAS 3B R/B 2.8 04:17:59 24° SW 04:22:34 71° NW 04:29:30 10° NNE
Cosmos 1980 Rocket 3.7 04:20:34 10° WNW 04:23:20 18° W 04:23:20 18° W
Cosmos 540 Rocket 3.4 04:20:47 20° SSW 04:24:21 89° WNW 04:29:32 10° NNE
Helios 1A Rocket 4.3 04:27:12 10° NNW 04:30:30 23° WNW 04:31:37 21° W
NOSS 3-2 (A) 3.4 04:26:27 21° SW 04:30:35 85° NW 04:37:10 10° NE
Cosmos 44 3.9 04:29:31 10° NW 04:34:22 38° WSW 04:39:18 10° S
Cosmos 2082 Rocket 4.5 04:37:03 10° NW 04:37:33 10° NW 04:38:03 10° NW
Resurs 1-4 Rocket 4.0 04:35:36 10° NNW 04:37:55 13° WNW 04:39:50 11° W
Cosmos 1825 Rocket 4.5 04:34:53 10° SSE 04:39:02 49° E 04:43:13 10° NNE
SL-16 R/B 2.5 04:33:51 10° NW 04:39:11 43° WSW 04:44:30 10° S
Okean O Rocket 3.3 04:36:53 10° NNE 04:40:51 33° E 04:44:47 10° SSE
CENTAUR R/B 3.7 04:36:58 10° S 04:42:18 38° ESE 04:48:20 10° NE
USA 215 3.3 04:36:14 10° NE 04:42:49 81° SE 04:48:37 14° SW
UNKNOWN OBJECT B 4.4 04:41:40 10° NNW 04:44:23 19° WNW 04:45:35 16° W
COSMOS 2428 4.4 04:39:26 10° N 04:44:44 38° ENE 04:49:58 10° SE
Cosmos 2266 Rocket 4.4 04:41:46 10° NNW 04:47:23 40° W 04:53:04 10° SSW
Cosmos 2219 Rocket 4.4 04:43:48 10° N 04:48:38 29° NE 04:53:25 10° ESE
Cosmos 1244 Rocket 4.5 04:42:47 10° N 04:48:58 89° E 04:55:09 10° S
PSLV R/B 3.6 04:48:52 21° SW 04:50:28 42° SSE 04:53:20 10° E
DNEPR-1 R/B 3.9 04:47:37 18° WSW 04:50:32 49° NW 04:55:04 10° NNE
Cosmos 1470 3.0 04:46:54 10° NNW 04:50:46 50° W 04:54:36 10° S
Cosmos 2322 Rocket 2.8 04:48:51 10° NW 04:53:52 34° WSW 04:58:50 10° SSW
CZ-4B R/B 2.9 04:52:35 10° NNE 04:56:49 89° W 05:00:46 10° SSW
PSLV R/B 3.5 04:53:20 10° N 04:57:31 63° WNW 05:01:39 10° SSW
Meteor 1-16 Rocket 4.3 04:52:30 10° N 04:58:11 81° E 05:03:38 10° SSE
Cosmos 1378 3.7 04:55:17 13° SW 04:58:15 37° WNW 05:01:48 10° N
Cosmos 1833 4.4 04:58:53 10° SW 05:04:38 63° WNW 05:10:23 10° NNE
S3M 4.3 04:58:43 10° S 05:04:48 70° E 05:10:52 10° NNE
Aureole 2 Rocket 2.8 05:02:02 10° NNW 05:05:39 43° WSW 05:09:00 10° S
Cosmos 1707 3.1 05:01:57 10° SSW 05:05:39 43° WNW 05:09:24 10° N
Cosmos 1953 Rocket 4.0 05:01:15 10° S 05:05:42 70° E 05:10:08 10° NNE
Cosmos 44 Rocket 4.3 05:03:12 10° NW 05:07:33 28° WSW 05:11:54 10° S
Cosmos 1125 Rocket 3.7 05:03:48 10° NNW 05:08:57 52° WSW 05:14:03 10° S
Cosmos 1812 Rocket 4.2 05:05:45 10° NNW 05:09:49 35° W 05:13:50 10° SSW
USA 161 1.8 05:08:52 10° SSE 05:11:53 75° E 05:14:49 10° N
CRYOSAT 2 4.3 05:08:10 10° S 05:12:59 71° W 05:17:51 10° N
IDEFIX/ARIANE 42P 4.2 05:11:16 10° NNE 05:16:08 38° E 05:20:59 10° SSE
PAYLOAD B 4.4 05:10:39 10° NNE 05:16:18 83° ESE 05:21:55 10° SSW
ERBS 2.4 05:13:19 10° SW 05:16:39 65° NW 05:20:02 10° NE
USA 267 4.2 05:11:04 10° ESE 05:17:21 52° NNE 05:23:39 10° NW
In-Cosmos 22 4.5 05:12:09 10° S 05:17:35 71° E 05:22:56 10° NNE
CZ-4B R/B 3.5 05:14:24 10° NNE 05:20:00 75° ESE 05:25:25 10° S
Cosmos 1758 Rocket 3.5 05:16:47 10° SSW 05:21:04 66° W 05:25:25 10° N
Meteor 1-31 Rocket 2.8 05:20:38 10° NNE 05:24:31 88° WNW 05:28:21 10° SSW
